Notices

What's New in latest Release from April 7th, 2021:

- Updated Glossary, including Speed of Maximum Gust, and Total Hourly Precipitation

- Updated national and regional climate services offices contacts and prices information

- Addition of station inventory lists for 1981-2010, 1971-2000, and 1961-1990 Normals.

If you haven't already, please take our survey and provide feedback about our website: https://eccc.sondage-survey.ca/f/LanguageSelection.aspx?s=442ca660-fcf1-47c0-95a9-59707d6fd709

Hourly Data Report for November 22, 2020

SHEARWATER RCS
NOVA SCOTIA
Current Station Operator: ECCC - MSC

44°37'47.000" N
63°30'48.000" W
24.00 m
8205092
71264
AAW

Download Data

Hourly Data (November 2020)
Hourly Data Report for November 22, 2020
TIME
LST
Temp Definition
°C
Dew Point Definition
°C
Rel Hum Definition
%
Precip. Amount Definition
mm

Wind Dir Definition
10's deg

Wind Spd Definition
km/h
Visibility Definition
km
Stn Press Definition
kPa
Hmdx Definition


Wind Chill Definition


Weather Definition


00:00 1.7 -4.3 64 0.0 32 9   102.52     LegendNANA
01:00 1.0 -5.7 61 0.0 33 13   102.56     LegendNANA
02:00 0.1 -6.2 63 0.0 33 11   102.64     LegendNANA
03:00 -0.5 -6.5 64 0.0 33 10   102.73   -4 LegendNANA
04:00 -1.2 -6.6 67 0.0 32 8   102.82   -4 LegendNANA
05:00 -1.5 -6.8 67 0.0 32 10   102.89   -5 LegendNANA
06:00 -1.7 -6.7 69 0.0 32 10   102.96   -5 LegendNANA
07:00 -2.0 -6.6 70 0.0 32 9   103.02   -5 LegendNANA
08:00 -1.7 -6.4 71 0.0 31 10   103.07   -5 LegendNANA
09:00 0.0 -5.8 65 0.0 33 14   103.11   -4 LegendNANA
10:00 1.9 -4.1 64 0.0 36 14   103.17     LegendNANA
11:00 3.0 -4.8 57 0.0 36 13   103.19     LegendNANA
12:00 3.2 -5.1 54 0.0 4 12   103.16     LegendNANA
13:00 3.4 -5.3 53 0.0 35 10   103.16     LegendNANA
14:00 2.8 -5.6 54 0.0 35 8   103.18     LegendNANA
15:00 2.9 -5.2 55 0.0 5 10   103.20     LegendNANA
16:00 2.5 -5.3 56 0.0 10 6   103.24     LegendNANA
17:00 0.5 -5.7 63 0.0 6 6   103.24     LegendNANA
18:00 -0.3 -5.4 69 0.0 5 6   103.32   -2 LegendNANA
19:00 0.2 -4.3 72 0.0 4 9   103.33     LegendNANA
20:00 0.8 -4.5 68 0.0 3 8   103.35     LegendNANA
21:00 0.7 -4.3 69 0.0 5 9   103.31     LegendNANA
22:00 0.4 -4.9 67 0.0 5 13   103.17     LegendNANA
23:00 0.4 -4.2 71 0.0 4 13   103.16     LegendNANA

Notes on Data Quality.

Legend

  • E = Estimated
  • M = Missing
  • NA = Not Available*
  • [empty] = Indicates an unobserved value
Date modified: